Powrót do katalogu

SPIRONE

AktywnyKrótkofalarstwoSSO
NORAD 66657·PAYLOAD·🇰🇷 South Korea

Wystrzelony Nov 26, 2025 z Naro Space Center

Loading…

Następne Przeloty (najbliższe 24 godziny)

TLE

ŚwieżeSource: Space-Track

Epoka: Sep 14, 2026, 13:14 UTC

1 66657U 25274H   26257.55151447  .00001917  00000-0  18560-3 0  9995
2 66657  97.7479 185.5803 0013619  78.2122 282.0624 14.93842670 43563

Śledź SPIRONE w czasie rzeczywistym z AllMySat

Download on the App Store